When you browse on this site, cookies collect data to enhance your experience and personalize the content and advertising you see.
Visit our Privacy Policy to learn more. By continuing to use the site, you agree to this use of cookies and data.
  • In Latvia
  • List of Countries
  • For 7 days
  • Water Temperature
  • Satellite Maps
  • Weather Map
  • Weather Widgets
  • user-avatar
    Login

    Hourly Weather Alterau

    Today, 18 February, Monday

    Time Temperature Precipitation Wind Pressure Humidity
    00:00 +4°C° 0 mm 0 mps 728 mmHg 71%
    01:00 +3°C° 0 mm 0 mps 728 mmHg 71%
    02:00 +3°C° 0 mm 0 mps 728 mmHg 71%
    03:00 +3°C° 0 mm 0 mps 727 mmHg 70%
    04:00 +2°C° 0 mm 0 mps 727 mmHg 70%
    05:00 +2°C° 0 mm 0 mps 727 mmHg 70%
    06:00 +2°C° 0 mm 0 mps 727 mmHg 70%
    07:00 +2°C° 0 mm 0 mps 727 mmHg 70%
    08:00 +4°C° 0 mm 0 mps 727 mmHg 65%
    09:00 +5°C° 0 mm 0 mps 727 mmHg 60%
    10:00 +7°C° 0 mm 0 mps 727 mmHg 56%
    11:00 +9°C° 0 mm 0 mps 726 mmHg 52%
    12:00 +11°C° 0 mm 0 mps 726 mmHg 48%
    13:00 +13°C° 0 mm 0 mps 726 mmHg 44%
    14:00 +13°C° 0 mm 0 mps 725 mmHg 45%
    15:00 +12°C° 0 mm 0 mps 725 mmHg 47%
    16:00 +12°C° 0 mm 0 mps 725 mmHg 49%
    17:00 +10°C° 0 mm 0 mps 725 mmHg 55%
    18:00 +8°C° 0 mm 0 mps 725 mmHg 61%
    19:00 +6°C° 0 mm 0 mps 725 mmHg 67%
    20:00 +5°C° 0 mm 0 mps 725 mmHg 69%
    21:00 +6°C° 0 mm 1 mps 725 mmHg 72%
    22:00 +5°C° 0 mm 1 mps 726 mmHg 74%
    23:00 +5°C° 0 mm 1 mps 726 mmHg 76%

    Tomorrow, 19 February, Tuesday

    Time Temperature Precipitation Wind Pressure Humidity
    00:00 +5°C° 0 mm 1 mps 726 mmHg 78%
    01:00 +4°C° 0 mm 1 mps 726 mmHg 79%
    02:00 +4°C° 0 mm 1 mps 726 mmHg 80%
    03:00 +3°C° 0 mm 1 mps 726 mmHg 80%
    04:00 +3°C° 0 mm 1 mps 725 mmHg 81%
    05:00 +3°C° 0 mm 1 mps 725 mmHg 81%
    06:00 +3°C° 0 mm 1 mps 725 mmHg 81%
    07:00 +2°C° 0 mm 1 mps 725 mmHg 81%
    08:00 +4°C° 0 mm 1 mps 726 mmHg 76%
    09:00 +6°C° 0 mm 1 mps 726 mmHg 70%
    10:00 +7°C° 0 mm 1 mps 726 mmHg 64%
    11:00 +8°C° 0 mm 2 mps 726 mmHg 63%
    12:00 +9°C° 0 mm 3 mps 726 mmHg 61%
    13:00 +11°C° 0 mm 3 mps 726 mmHg 59%
    14:00 +10°C° 0 mm 3 mps 726 mmHg 62%
    15:00 +10°C° 0 mm 3 mps 726 mmHg 66%
    16:00 +10°C° 0 mm 2 mps 726 mmHg 70%
    17:00 +8°C° 0.1 mm 2 mps 726 mmHg 76%
    18:00 +8°C° 0.1 mm 1 mps 727 mmHg 83%
    19:00 +7°C° 0.1 mm 1 mps 727 mmHg 90%
    20:00 +7°C° 0.1 mm 1 mps 727 mmHg 91%
    21:00 +5°C° 0.1 mm 0 mps 727 mmHg 92%
    22:00 +5°C° 0.1 mm 0 mps 728 mmHg 93%
    23:00 +4°C° 0 mm 0 mps 728 mmHg 93%

    Day after tomorrow, 20 February, Wednesday

    Time Temperature Precipitation Wind Pressure Humidity
    00:00 +4°C° 0 mm 0 mps 728 mmHg 93%
    01:00 +3°C° 0 mm 0 mps 728 mmHg 93%
    02:00 +3°C° 0 mm 0 mps 727 mmHg 93%
    03:00 +2°C° 0 mm 0 mps 727 mmHg 93%
    04:00 +2°C° 0 mm 0 mps 727 mmHg 93%
    05:00 +2°C° 0 mm 0 mps 727 mmHg 93%
    06:00 +2°C° 0 mm 0 mps 727 mmHg 93%
    07:00 +2°C° 0 mm 0 mps 727 mmHg 93%
    08:00 +3°C° 0 mm 0 mps 728 mmHg 87%
    09:00 +5°C° 0 mm 0 mps 728 mmHg 82%
    10:00 +6°C° 0 mm 0 mps 728 mmHg 76%
    11:00 +8°C° 0 mm 0 mps 728 mmHg 71%
    12:00 +10°C° 0 mm 1 mps 728 mmHg 66%
    13:00 +11°C° 0 mm 1 mps 728 mmHg 61%
    14:00 +12°C° 0 mm 1 mps 728 mmHg 61%
    15:00 +12°C° 0 mm 1 mps 728 mmHg 61%
    16:00 +12°C° 0 mm 1 mps 728 mmHg 60%
    17:00 +10°C° 0 mm 1 mps 728 mmHg 67%
    18:00 +8°C° 0 mm 1 mps 729 mmHg 74%
    19:00 +5°C° 0 mm 0 mps 729 mmHg 81%
    20:00 +5°C° 0 mm 0 mps 729 mmHg 83%
    21:00 +4°C° 0 mm 0 mps 730 mmHg 85%
    22:00 +4°C° 0 mm 0 mps 730 mmHg 87%
    23:00 +4°C° 0 mm 0 mps 730 mmHg 87%

    21 February, Thursday

    Time Temperature Precipitation Wind Pressure Humidity
    00:00 +3°C° 0 mm 0 mps 730 mmHg 88%
    01:00 +3°C° 0 mm 0 mps 730 mmHg 88%
    02:00 +3°C° 0 mm 0 mps 730 mmHg 88%
    03:00 +3°C° 0 mm 0 mps 730 mmHg 88%
    04:00 +2°C° 0 mm 0 mps 730 mmHg 88%
    05:00 +2°C° 0 mm 0 mps 730 mmHg 87%
    06:00 +2°C° 0 mm 0 mps 731 mmHg 87%
    07:00 +3°C° 0 mm 1 mps 731 mmHg 86%
    08:00 +4°C° 0 mm 0 mps 731 mmHg 80%
    09:00 +6°C° 0 mm 0 mps 731 mmHg 73%
    10:00 +8°C° 0 mm 0 mps 732 mmHg 67%
    11:00 +9°C° 0 mm 0 mps 732 mmHg 63%
    12:00 +11°C° 0 mm 1 mps 732 mmHg 59%
    13:00 +13°C° 0 mm 1 mps 732 mmHg 55%
    14:00 +13°C° 0 mm 1 mps 731 mmHg 55%
    15:00 +13°C° 0 mm 1 mps 731 mmHg 56%
    16:00 +13°C° 0 mm 1 mps 731 mmHg 56%
    17:00 +11°C° 0 mm 1 mps 732 mmHg 63%
    18:00 +9°C° 0 mm 0 mps 732 mmHg 70%
    19:00 +7°C° 0 mm 0 mps 732 mmHg 76%
    20:00 +7°C° 0 mm 0 mps 733 mmHg 78%
    21:00 +6°C° 0 mm 0 mps 733 mmHg 79%
    22:00 +6°C° 0 mm 0 mps 733 mmHg 80%
    23:00 +6°C° 0 mm 0 mps 733 mmHg 80%

    22 February, Friday

    Time Temperature Precipitation Wind Pressure Humidity
    00:00 +6°C° 0 mm 0 mps 734 mmHg 79%
    01:00 +6°C° 0 mm 0 mps 734 mmHg 78%
    02:00 +5°C° 0 mm 0 mps 734 mmHg 80%
    03:00 +5°C° 0 mm 0 mps 734 mmHg 81%
    04:00 +4°C° 0 mm 0 mps 734 mmHg 82%
    05:00 +5°C° 0 mm 1 mps 734 mmHg 83%
    06:00 +5°C° 0 mm 1 mps 735 mmHg 84%
    07:00 +5°C° 0 mm 1 mps 735 mmHg 85%
    08:00 +7°C° 0 mm 1 mps 735 mmHg 83%
    09:00 +7°C° 0 mm 2 mps 735 mmHg 80%
    10:00 +8°C° 0 mm 2 mps 735 mmHg 78%
    11:00 +10°C° 0 mm 3 mps 735 mmHg 73%
    12:00 +11°C° 0 mm 3 mps 735 mmHg 68%
    13:00 +12°C° 0 mm 4 mps 735 mmHg 63%
    14:00 +12°C° 0 mm 4 mps 735 mmHg 63%
    15:00 +12°C° 0 mm 4 mps 735 mmHg 64%
    16:00 +12°C° 0 mm 4 mps 735 mmHg 65%
    17:00 +10°C° 0 mm 3 mps 735 mmHg 71%
    18:00 +9°C° 0 mm 3 mps 735 mmHg 78%
    19:00 +7°C° 0 mm 3 mps 735 mmHg 85%
    20:00 +7°C° 0 mm 2 mps 736 mmHg 88%
    21:00 +6°C° 0 mm 2 mps 736 mmHg 90%
    22:00 +5°C° 0 mm 2 mps 736 mmHg 93%
    23:00 +5°C° 0 mm 2 mps 736 mmHg 93%

    23 February, Saturday

    Time Temperature Precipitation Wind Pressure Humidity
    00:00 +5°C° 0 mm 1 mps 736 mmHg 94%
    01:00 +5°C° 0 mm 1 mps 736 mmHg 95%
    02:00 +4°C° 0 mm 1 mps 736 mmHg 95%
    03:00 +4°C° 0 mm 1 mps 736 mmHg 95%
    04:00 +4°C° 0 mm 1 mps 736 mmHg 95%
    05:00 +4°C° 0 mm 1 mps 736 mmHg 95%
    06:00 +3°C° 0 mm 1 mps 736 mmHg 95%
    07:00 +2°C° 0 mm 0 mps 736 mmHg 95%
    08:00 +5°C° 0 mm 1 mps 736 mmHg 88%
    09:00 +6°C° 0 mm 1 mps 737 mmHg 82%
    10:00 +8°C° 0 mm 1 mps 737 mmHg 75%
    11:00 +9°C° 0 mm 1 mps 737 mmHg 69%
    12:00 +11°C° 0 mm 1 mps 737 mmHg 62%
    13:00 +13°C° 0 mm 1 mps 737 mmHg 56%
    14:00 +13°C° 0 mm 1 mps 736 mmHg 56%
    15:00 +13°C° 0 mm 1 mps 736 mmHg 56%
    16:00 +13°C° 0 mm 1 mps 736 mmHg 56%
    17:00 +11°C° 0 mm 1 mps 736 mmHg 64%
    18:00 +9°C° 0 mm 1 mps 736 mmHg 72%
    19:00 +7°C° 0 mm 1 mps 736 mmHg 80%
    20:00 +7°C° 0 mm 1 mps 736 mmHg 83%
    21:00 +6°C° 0 mm 1 mps 736 mmHg 86%
    22:00 +6°C° 0 mm 1 mps 736 mmHg 89%
    23:00 +6°C° 0 mm 1 mps 736 mmHg 89%
    Show more